Zurück zum Katalog

COSMOS 1275 DEB

AktivPO
NORAD 13456·DEBRIS·🇷🇺 Russia

Gestartet Jun 4, 1981 von Plesetsk Cosmodrome

Loading…

Nächste Überflüge (nächste 24 Stunden)

TLE

AktuellSource: Space-Track

Epoche: Sep 14, 2026, 01:34 UTC

1 13456U 81053FC  26257.06534413  .00002988  00000-0  22572-2 0  9991
2 13456  82.8276 293.1812 0147475 162.0835 227.0303 13.88812482224508

Verfolge COSMOS 1275 DEB in Echtzeit mit AllMySat

Download on the App Store